Погода в Зилаире

Погода в Зилаире : погода сейчас, прогноз погоды и архив. Всё, что Вы хотите узнать о погоде в Зилаире!

Поиск расширенной информации на нашем сайте:

Другие новости

Новости СМИ2

Главная страница сайта

Новости сайта

03.07.2017

Напоминаем, что на нашем специализированном сайте Метеоцентр.Азия вы можете получить высокодетализированные автоматические прогнозы погоды по пунктам России, СНГ и мира в авиационном формате (включающие направление и скорость ветра, видимость, явления погоды, количество и форму облачности, нижнюю и верхнюю границу облачности).


Погода в Зилаире - сегодня

Время (UTC), дата Ветер
(°,м/с) 
Видим.   Явления Облачность Т
(°С)
Тd
(°С)
f(%) Тe
(°С)
Pmin
(гПа)
dP
(гПа)
Po
(мм)
O2
(г/м3)
Тmin Tmax R s Состояние
почвы
00 22.05.18 020 (С) 10 км    3/0 средняя 
[Ac lent]
+7.6 +4.5 81 +7  1024.5  722  282           
03 22.05.18 040 (СВ) 20000 м    ясно 
+10.4 +3.4 62 +10  1025.8  1.8  723  280  +7.1        сухая 
06 22.05.18 020 (С) 20000 м    3/0 верхняя 
[Ci fib]
+15.8 -4.2 25 +16  1025.5  0.8  724  276           
09 22.05.18 350 (С) 20000 м    ясно 
+19.8 -3.2 21 +20  1023.9  -0.7  723  272           
12 22.05.18 330 (СЗ) 20000 м    ясно 
+21.4 -2.5 20 +21  1022.8  -0.7  722  270           
18 22.05.18 020 (С) 10 км    ясно 
+15.4 +1.5 39 +16  1025.5  1.3  723  276           
21 22.05.18 030 (СВ) 10 км    ясно 
+12.2 +2.6 52 +13  1026.1  723  279           
00 23.05.18 340 (С) 10 км    ясно 
+8.1 +3.4 72 +8  1027.9  0.8  724  283           
03 23.05.18 360 (С) 20000 м    ясно 
+14.9 +5.2 52 +16  1027.6  1.2  725  276  +6.6        сухая 
06 23.05.18 360 (С) 20000 м    ясно 
+23.1 +3.3 27 +23  1026.8  0.8  726  269           
09 23.05.18 320 (СЗ) 20000 м    4/4 600 м 
[Cu hum]
+25.7 +3 23 +26  1025.5  -0.7  725  267           
12 23.05.18 290 (З) 20000 м    3/3 600 м 
[Cu hum]
+26 +4.5 25 +26  1024.6  -0.8  724  266           
15 23.05.18 290 (З) 20000 м    ясно 
+24.3 +5.2 29 +24  1024.2  -0.7  724  267    +26.4       
18 23.05.18 180 (Ю) 10 км    ясно 
+15.1 +7.3 60 +16  1025.7  -0.4  724  275           
21 23.05.18 170 (Ю) 10 км    ясно 
+13.2 +7.2 67 +14  1024.8  -1.2  723  277           
00 24.05.18 140 (ЮВ) 10 км    6/0 
[Sc]
+9.6 +7.5 87 +11  1025.4  -0.2  723  280           
03 24.05.18 190 (Ю) 20000 м    4/0 средняя 
[Ac lent]
+14.8 +8.5 66 +15  1023.7  -0.5  722  274  +8.6        сухая 
06 24.05.18 300 (СЗ) 20000 м    8/0 верхняя 
[Ci sp]
+23.6 +5.3 31 +24  1021  -0.8  722  267           
09 24.05.18 290 (З) 20000 м    6/0 верхняя 
[Ci sp]
+25.6 +5.2 27 +26  1018.9  -1.6  720  265           
12 24.05.18 310 (СЗ) 20000 м    9/3 1500 м средняя, верхняя 
[Cu med, cong|Ac cuf|Ci sp]
+25.6 +6.2 29 +26  1017.3  -1.5  719  264           
18 24.05.18 050 (СВ) 10 км    8/0 средняя, верхняя 
[Ac cuf|Ci fib]
+18.3 +7.4 49 +20  1017.6  0.3  718  270           
21 24.05.18 180 (Ю) 10 км    ясно 
+11.8 +7.3 74 +13  1016.7  -2  717  276           
00 25.05.18 тихо ()   10 км    4/0 средняя 
[Ac As]
+9.1 +6.8 85 +9  1016.2  -1.2  716  278           
03 25.05.18 190 (Ю) 20000 м    8/0 верхняя 
[Ci fib]
+15.3 +9 66 +17  1013.1  -1.6  715  271  +8        сухая 
06 25.05.18 260 (З) 20000 м    8/0 средняя, верхняя 
[Ac As|Ci sp]
+23.4 +3.8 28 +23  1010.1  -1.4  714  264           
Время (UTC), дата Ветер
(°,м/с) 
Видим.   Явления Облачность Т
(°С)
Тd
(°С)
f(%) Тe
(°С)
Pmin
(гПа)
dP
(гПа)
Po
(мм)
O2
(г/м3)
Тmin Tmax R s Состояние
почвы

Для получения пояснительной информации подведите курсор к названию столбца.

ПОГОДА в Зилаире - архив

Всё, что Вы хотите узнать о погоде в Зилаире - удобно и подробно!

Выберите нужную дату (начиная с 1 января 2015* года) и нажмите кнопку "Найти".
Будут отображены архивные сводки погоды по пункту Зилаир, начиная с указанной даты.


Отображать данные в формате CSV (для использования в таблицах Excel)


Внимание! Наш архив погоды предназначен исключительно для личного некоммерческого использования в познавательных целях. Если Вам необходимы официальные справки о состоянии погоды (для производственных, юридических, коммерческих и т.п. целей), обращайтесь в органы Росгидромета.

*Примечание: данная дата относится к архиву по метеостанциям СССР (Россия, СНГ, Балтия).
Архив по метеостанциям Зарубежной Европы и Азии (кроме Китая) хранится 10 дней, по другим регионам земного шара (Китай, Африка, Америка, Австралия, Океания) - 1 день.

Зилаир - район местоположения метеостанции


Название, широта, долгота, высота метеостанции:
Зилаир 52.2°ш. 57.4°д. 521 м над ур. моря [Российская Федерация]

Дополнительная информация

В oтличие oт бoльшинства пoгoдных сайтoв мы публикуем пoдрoбную метеoинфoрмацию в детальнoм прoфессиoнальнoм фoрмате.

Характеристики температуры и влажнoсти вoздуха измеряются на высoте 2 м в тени вдали oт зданий и деревьев.
Скoрoсть ветра измеряется на высoте 10 м (на урoвне рoста челoвека скoрoсть ветра ниже в 1.5-2 раза). Если метеoстанция нахoдится в гoрoде или в лесу, тo скoрoсть ветра занижена на 2-4 м/с пo сравнению с oткрытым местoм. Скoрoсть ветра над акватoриями крупных рек и oзёр, а также на вершинах хoлмoв на 2-5 м/с выше, чем в oбычных услoвиях.
Атмoсфернoе давление в разных тoчках местнoсти мoжет значительнo oтличаться oт давления на метеoстанции, в зависимoсти oт услoвий рельефа (при пoдъёме на 10 м давление пoнижается примернo на 1 мм рт.ст.).